Regional Weather Roundup
Issued by NWS

Home | Current Version | Previous Version | Graphics & Text | Print | Product List | Glossary On
Versions: 1 2 3 4 5 6 7 8 9 10 11 12 13 14 15 16 17 18 19 20 21 22 23 24 25 26 27 28 29 30 31 32 33 34 35 36 37 38 39 40 41 42 43 44 45 46 47 48 49 50
000
ASUS45 KBOU 240207
RWRCO

WEATHER ROUNDUP FOR COLORADO
NATIONAL WEATHER SERVICE DENVER/BOULDER CO
700 PM MST SUN NOV 23 2014

NOTE: "FAIR" INDICATES FEW OR NO CLOUDS BELOW 12000 FEET WITH NO
SIGNIFICANT WEATHER AND/OR OBSTRUCTIONS TO VISIBILITY.

COZ001>005-013-030-031-240300-
...NORTHWEST COLORADO...

CITY           SKY/WX    TMP DP  RH WIND       PRES   REMARKS
CRAIG          MOCLDY    24  14  65 W16       30.05R WCI  11
HAYDEN         CLOUDY    25  14  63 W12       30.02R WCI  14
MEEKER         PTCLDY    25  12  58 NW10      30.06R WCI  15
MOUNT WERNER   NOT AVBL
STEAMBOAT SPGS CLOUDY    23  11  59 W13G24    29.99S WCI  11
WALDEN         CLOUDY    18  10  73 W7        29.92R WCI   8
$$

COZ006>008-011-240300-
...WEST CENTRAL VALLEYS...

CITY           SKY/WX    TMP DP  RH WIND       PRES   REMARKS
GRAND JUNCTION CLEAR     31  19  61 N9        30.08R WCI  23
MONTROSE       PTCLDY    27  17  66 W3        30.09R
EAGLE          NOT AVBL
RIFLE          MOCLDY    23  16  74 E7        30.08R WCI  15
DELTA          PTCLDY    34  18  53 CALM      30.08R
NUCLA          PTCLDY    30  21  69 CALM      30.12R
$$

COZ017>023-064>068-240300-
...SOUTHWEST COLORADO...

CITY           SKY/WX    TMP DP  RH WIND       PRES   REMARKS
DURANGO        CLEAR     27  11  51 NW7       30.03R WCI  19
CORTEZ         CLEAR     28  20  71 N5        30.09R WCI  23
PAGOSA SPRINGS CLEAR     28  -2  26 NW10G16   29.97R WCI  19
TELLURIDE      NOT AVBL
WOLF CREEK PAS CLOUDY     5   0  78 MISG      29.91R
$$

COZ009-010-012-014-032>034-037-058>063-240300-
...CENTRAL COLORADO...

CITY           SKY/WX    TMP DP  RH WIND       PRES   REMARKS
ASPEN          MOCLDY    19  14  81 N5        29.98R WCI  12
BUENA VISTA    FLURRIES  22  13  68 W6        29.93R WCI  14
COPPER MTN     CLOUDY     9   1  72 W25G31    29.81S WCI -13
BERTHOUD PASS  HVY SNOW   0  -6  78 MISG      29.70S VSB<1/4
COTTONWOOD PAS LGT SNOW  19   5  53 NW14G28   29.88R WCI   6
GUNNISON       PTCLDY    18   3  53 S6        30.00S WCI   9
KREMMLING      CLOUDY    21  14  73 W8        29.98R WCI  12
LEADVILLE      LGT SNOW  10   7  87 NW7       29.87S VSB 3/4 WCI  -1
MONARCH PASS     N/A      3   0  85 W44       29.94S WCI -25
SALIDA         PTCLDY    27   3  36 NW10      30.01R WCI  17
SUNLIGHT       CLOUDY   N/A N/A N/A MISG      29.95S
WILKERSON PASS PTCLDY     7  -2  66 NW13G24   29.84S WCI  -9
$$

COZ069>075-240300-
...SAN LUIS VALLEY/SANGRE DE CRISTO MOUNTAINS...

CITY           SKY/WX    TMP DP  RH WIND       PRES   REMARKS
ALAMOSA        CLEAR     24   6  46 NW29G37   29.92R WCI   7
LA VETA PASS   MOCLDY    16  10  79 MISG      29.86R
SAGUACHE       NOT AVBL
$$

COZ035-036-038>040-240300-
...NORTHERN COLORADO FRONT RANGE...

CITY           SKY/WX    TMP DP  RH WIND       PRES   REMARKS
DENVER INTL AP MOCLDY    28  18  66 W12       29.89R WCI  18
DMNS CITY PARK   N/A     29  18  63 SW6       29.91S WCI  23
AURORA         MOCLDY    26  18  72 W3        29.91R
FRONT RANGE AP NOT AVBL
ERIE MUNI ARPT PTCLDY    26  20  80 CALM      29.90F
BOULDER MUN AP PTCLDY    30  19  64 CALM      29.90S
CENTENNIAL     PTCLDY    29  15  56 NW10      29.90S WCI  20
BROOMFIELD     MOCLDY    30  18  59 CALM      29.90S
FORT COLLINS   CLEAR     28  14  54 NW7       29.90S WCI  21
LONGMONT       CLEAR     27  20  75 CALM      29.92S
$$

COZ041-046-047-076>085-087-088-240300-
...PIKES PEAK/PALMER DIVIDE AND SOUTHERN FOOTHILLS...

CITY           SKY/WX    TMP DP  RH WIND       PRES   REMARKS
COLO. SPRINGS  MOCLDY    25  21  85 W5        29.90S WCI  19
A. F. ACADEMY  MOCLDY    25  21  85 N6        29.89S WCI  18
ELLICOTT       NOT AVBL
FALCON         NOT AVBL
FORT CARSON    FLURRIES  27  26  96 N8        29.90S WCI  19
LIMON          CLOUDY    30  17  58 NW17      29.87R WCI  18
MONUMENT HILL  PTCLDY    14  12  92 W6        29.88R WCI   5
TRINIDAD       LGT SNOW  29  27  92 W10       29.91R FOG     WCI  20
$$

COZ042>045-048>051-090-091-240300-
...NORTHEAST COLORADO...

CITY           SKY/WX    TMP DP  RH WIND       PRES   REMARKS
GREELEY ARPT   PTCLDY    27  12  54 N8        29.91R WCI  18
AKRON          PTCLDY    29  13  51 NW15      29.84R WCI  18
BURLINGTON     CLEAR     33  10  38 NW12      29.82R WCI  24
WRAY           CLEAR     29   9  44 W8        29.83R WCI  21
STERLING       PTCLDY    34  18  51 NW10      29.85R WCI  26
HOLYOKE        CLEAR     36  16  44 NW16G22   29.81R
FORT MORGAN    PTCLDY    31  14  49 NW17      29.88S WCI  20
$$

COZ086-089-092>099-240300-
...SOUTHEAST COLORADO...

CITY           SKY/WX    TMP DP  RH WIND       PRES   REMARKS
PUEBLO         LGT SNOW  33  31  92 NE5       29.94R FOG     WCI  29
LA JUNTA       CLOUDY    39  24  55 N28G35    29.92R
LAMAR          PTCLDY    32  15  49 W7        29.85R WCI  26
SPRINGFIELD      N/A     27  14  58 NW10      29.85R WCI  17
$$



USA.gov is the U.S. government's official web portal to all federal, state and local government web resources and services.